• In Deutschland
  • Länderverzeichnis
  • Für 7 Tage
  • Wassertemperatur
  • Satellitenkarten
  • Wetterkarte
  • Widgets
  • user-avatar
    Anmelden

    Stündliche Wetter Haiger

    Heute, 16 Dezember, Samstag

    Zeit Temperatur Niederschläge Wind Luftdruck Luftfeuchtigkeit
    00:00 -2°C° 0 mm 0 m/S 717 mmHg 94%
    01:00 -1°C° 0 mm 0 m/S 717 mmHg 93%
    02:00 0°C° 0 mm 1 m/S 717 mmHg 94%
    03:00 0°C° 0 mm 1 m/S 718 mmHg 94%
    04:00 0°C° 0 mm 1 m/S 718 mmHg 94%
    05:00 0°C° 0 mm 1 m/S 719 mmHg 94%
    06:00 -2°C° 0 mm 2 m/S 719 mmHg 94%
    07:00 -1°C° 0 mm 2 m/S 720 mmHg 94%
    08:00 +1°C° 0,1 mm 2 m/S 720 mmHg 93%
    09:00 +1°C° 0,1 mm 2 m/S 721 mmHg 92%
    10:00 0°C° 0,1 mm 3 m/S 722 mmHg 91%
    11:00 0°C° 0 mm 3 m/S 722 mmHg 88%
    12:00 +1°C° 0 mm 3 m/S 723 mmHg 86%
    13:00 +1°C° 0 mm 3 m/S 723 mmHg 84%
    14:00 +1°C° 0 mm 3 m/S 724 mmHg 84%
    15:00 +1°C° 0 mm 3 m/S 724 mmHg 84%
    16:00 0°C° 0 mm 3 m/S 724 mmHg 84%
    17:00 0°C° 0,1 mm 3 m/S 725 mmHg 86%
    18:00 0°C° 0,1 mm 3 m/S 725 mmHg 87%
    19:00 -1°C° 0,1 mm 3 m/S 726 mmHg 89%
    20:00 -1°C° 0 mm 3 m/S 726 mmHg 89%
    21:00 -1°C° 0 mm 3 m/S 727 mmHg 90%
    22:00 -1°C° 0 mm 3 m/S 727 mmHg 91%
    23:00 -1°C° 0 mm 3 m/S 727 mmHg 91%

    Morgen, 17 Dezember, Sonntag

    Zeit Temperatur Niederschläge Wind Luftdruck Luftfeuchtigkeit
    00:00 -1°C° 0 mm 3 m/S 728 mmHg 92%
    01:00 -1°C° 0 mm 3 m/S 728 mmHg 92%
    02:00 -1°C° 0,1 mm 3 m/S 728 mmHg 92%
    03:00 -1°C° 0,1 mm 3 m/S 728 mmHg 92%
    04:00 -1°C° 0,1 mm 3 m/S 729 mmHg 92%
    05:00 -1°C° 0 mm 3 m/S 729 mmHg 92%
    06:00 -1°C° 0 mm 3 m/S 729 mmHg 92%
    07:00 -1°C° 0 mm 3 m/S 730 mmHg 92%
    08:00 -1°C° 0 mm 3 m/S 730 mmHg 91%
    09:00 -1°C° 0 mm 3 m/S 731 mmHg 90%
    10:00 -1°C° 0 mm 3 m/S 731 mmHg 88%
    11:00 0°C° 0 mm 3 m/S 732 mmHg 87%
    12:00 0°C° 0 mm 3 m/S 732 mmHg 85%
    13:00 +1°C° 0 mm 3 m/S 732 mmHg 84%
    14:00 +1°C° 0 mm 2 m/S 732 mmHg 86%
    15:00 +1°C° 0 mm 2 m/S 733 mmHg 87%
    16:00 +1°C° 0 mm 2 m/S 733 mmHg 89%
    17:00 +1°C° 0 mm 2 m/S 733 mmHg 90%
    18:00 -1°C° 0 mm 2 m/S 733 mmHg 91%
    19:00 -1°C° 0 mm 2 m/S 734 mmHg 92%
    20:00 -1°C° 0 mm 2 m/S 734 mmHg 92%
    21:00 -1°C° 0 mm 2 m/S 734 mmHg 92%
    22:00 -1°C° 0 mm 2 m/S 734 mmHg 92%
    23:00 -1°C° 0 mm 3 m/S 733 mmHg 90%

    übermorgen, 18 Dezember, Montag

    Zeit Temperatur Niederschläge Wind Luftdruck Luftfeuchtigkeit
    00:00 -1°C° 0 mm 3 m/S 733 mmHg 88%
    01:00 -2°C° 0 mm 4 m/S 733 mmHg 87%
    02:00 -2°C° 0,5 mm 4 m/S 732 mmHg 88%
    03:00 -2°C° 0,5 mm 4 m/S 731 mmHg 89%
    04:00 -2°C° 0,5 mm 5 m/S 730 mmHg 90%
    05:00 -2°C° 0,9 mm 4 m/S 730 mmHg 91%
    06:00 -1°C° 0,9 mm 4 m/S 730 mmHg 92%
    07:00 0°C° 0,9 mm 3 m/S 729 mmHg 93%
    08:00 0°C° 0,2 mm 3 m/S 730 mmHg 93%
    09:00 +1°C° 0,2 mm 3 m/S 730 mmHg 94%
    10:00 +1°C° 0,2 mm 3 m/S 730 mmHg 94%
    11:00 +1°C° 0 mm 3 m/S 731 mmHg 91%
    12:00 +1°C° 0 mm 4 m/S 731 mmHg 88%
    13:00 +1°C° 0 mm 4 m/S 731 mmHg 86%
    14:00 +1°C° 0 mm 4 m/S 732 mmHg 87%
    15:00 +2°C° 0 mm 3 m/S 732 mmHg 89%
    16:00 +1°C° 0 mm 3 m/S 733 mmHg 90%
    17:00 +2°C° 0 mm 2 m/S 734 mmHg 92%
    18:00 +1°C° 0 mm 2 m/S 734 mmHg 93%
    19:00 +1°C° 0 mm 2 m/S 735 mmHg 94%
    20:00 -1°C° 0 mm 2 m/S 736 mmHg 94%
    21:00 +1°C° 0 mm 1 m/S 736 mmHg 94%
    22:00 0°C° 0 mm 1 m/S 737 mmHg 95%
    23:00 0°C° 0 mm 1 m/S 737 mmHg 94%

    19 Dezember, Dienstag

    Zeit Temperatur Niederschläge Wind Luftdruck Luftfeuchtigkeit
    00:00 0°C° 0 mm 1 m/S 738 mmHg 94%
    01:00 -1°C° 0 mm 1 m/S 738 mmHg 94%
    02:00 -1°C° 0 mm 1 m/S 738 mmHg 94%
    03:00 -1°C° 0 mm 1 m/S 738 mmHg 94%
    04:00 -1°C° 0 mm 1 m/S 739 mmHg 94%
    05:00 -1°C° 0 mm 1 m/S 739 mmHg 94%
    06:00 -1°C° 0 mm 1 m/S 739 mmHg 94%
    07:00 -1°C° 0 mm 1 m/S 740 mmHg 94%
    08:00 -1°C° 0 mm 1 m/S 740 mmHg 93%
    09:00 0°C° 0 mm 1 m/S 740 mmHg 92%
    10:00 +1°C° 0 mm 1 m/S 741 mmHg 91%
    11:00 +2°C° 0 mm 1 m/S 741 mmHg 90%
    12:00 +1°C° 0 mm 2 m/S 741 mmHg 90%
    13:00 +2°C° 0 mm 2 m/S 741 mmHg 89%
    14:00 +2°C° 0 mm 2 m/S 741 mmHg 91%
    15:00 +2°C° 0 mm 2 m/S 741 mmHg 92%
    16:00 +2°C° 0 mm 2 m/S 741 mmHg 94%
    17:00 +2°C° 0 mm 2 m/S 741 mmHg 95%
    18:00 +2°C° 0 mm 2 m/S 741 mmHg 95%
    19:00 +1°C° 0 mm 2 m/S 741 mmHg 95%
    20:00 +1°C° 0 mm 2 m/S 741 mmHg 95%
    21:00 +1°C° 0 mm 2 m/S 741 mmHg 95%
    22:00 +1°C° 0 mm 2 m/S 741 mmHg 95%
    23:00 +1°C° 0 mm 2 m/S 741 mmHg 95%

    20 Dezember, Mittwoch

    Zeit Temperatur Niederschläge Wind Luftdruck Luftfeuchtigkeit
    00:00 +1°C° 0 mm 2 m/S 741 mmHg 94%
    01:00 -1°C° 0 mm 2 m/S 740 mmHg 94%
    02:00 +1°C° 0 mm 2 m/S 740 mmHg 94%
    03:00 +2°C° 0 mm 2 m/S 740 mmHg 94%
    04:00 +2°C° 0 mm 2 m/S 740 mmHg 95%
    05:00 +2°C° 0 mm 2 m/S 740 mmHg 95%
    06:00 +2°C° 0 mm 2 m/S 740 mmHg 96%
    07:00 +2°C° 0 mm 2 m/S 740 mmHg 96%
    08:00 +2°C° 0 mm 2 m/S 740 mmHg 96%
    09:00 +3°C° 0 mm 2 m/S 740 mmHg 97%
    10:00 +3°C° 0 mm 2 m/S 740 mmHg 97%
    11:00 +3°C° 0,1 mm 2 m/S 740 mmHg 97%
    12:00 +4°C° 0,1 mm 2 m/S 740 mmHg 97%
    13:00 +4°C° 0,1 mm 2 m/S 740 mmHg 97%
    14:00 +4°C° 0 mm 2 m/S 740 mmHg 97%
    15:00 +4°C° 0 mm 2 m/S 740 mmHg 97%
    16:00 +6°C° 0 mm 1 m/S 740 mmHg 97%
    17:00 +5°C° 0 mm 2 m/S 740 mmHg 97%
    18:00 +5°C° 0 mm 2 m/S 740 mmHg 97%
    19:00 +5°C° 0 mm 2 m/S 740 mmHg 98%
    20:00 +5°C° 0,1 mm 2 m/S 740 mmHg 97%
    21:00 +5°C° 0,1 mm 2 m/S 740 mmHg 97%
    22:00 +5°C° 0,1 mm 2 m/S 741 mmHg 97%
    23:00 +6°C° 0,1 mm 2 m/S 740 mmHg 97%

    21 Dezember, Donnerstag

    Zeit Temperatur Niederschläge Wind Luftdruck Luftfeuchtigkeit
    00:00 +5°C° 0,1 mm 3 m/S 740 mmHg 97%
    01:00 +5°C° 0,1 mm 3 m/S 740 mmHg 96%
    02:00 +5°C° 0 mm 3 m/S 740 mmHg 96%
    03:00 +5°C° 0 mm 3 m/S 740 mmHg 96%
    04:00 +5°C° 0 mm 3 m/S 740 mmHg 96%
    05:00 +5°C° 0 mm 3 m/S 740 mmHg 96%
    06:00 +5°C° 0 mm 3 m/S 740 mmHg 95%
    07:00 +5°C° 0 mm 3 m/S 739 mmHg 95%
    08:00 +5°C° 0,1 mm 3 m/S 740 mmHg 95%
    09:00 +5°C° 0,1 mm 3 m/S 740 mmHg 95%
    10:00 +5°C° 0,1 mm 3 m/S 740 mmHg 95%
    11:00 +5°C° 0,1 mm 4 m/S 739 mmHg 93%
    12:00 +6°C° 0,1 mm 4 m/S 739 mmHg 92%
    13:00 +6°C° 0,1 mm 4 m/S 739 mmHg 90%
    14:00 +6°C° 0 mm 4 m/S 738 mmHg 90%
    15:00 +6°C° 0 mm 4 m/S 738 mmHg 91%
    16:00 +6°C° 0 mm 4 m/S 738 mmHg 91%
    17:00 +6°C° 0,1 mm 4 m/S 738 mmHg 91%
    18:00 +6°C° 0,1 mm 4 m/S 738 mmHg 91%
    19:00 +6°C° 0,1 mm 4 m/S 738 mmHg 92%
    20:00 +6°C° 0,1 mm 4 m/S 737 mmHg 91%
    21:00 +7°C° 0,1 mm 4 m/S 737 mmHg 91%
    22:00 +7°C° 0,1 mm 4 m/S 736 mmHg 91%
    23:00 +7°C° 0,2 mm 5 m/S 735 mmHg 90%
    Mehr zeigen

    XHprof extension not loaded